BEESAT-4 (41619 NORAD) Tracking and Keplerian Element Data

This shows tracking and keplerian element data for the satellite.

Feedback or suggestion? Click here.




ElementValue
Catalog41619
NameBEESAT-4
Epoch Orbit12162
Epoch Day322.86494116
Epoch Year2018
RAAN23.7532
Inclination97.3976
Eccentricity0.0012754
Argument of Perigee53.3239
Mean Anonmoly306.9168
Mean Motion15.2255348
Decay Rate1.437E-05
L11 41619U 16040W 18322.86494116 .00001437 00000-0 64847-4 0 9995
L22 41619 97.3976 23.7532 0012754 53.3239 306.9168 15.22553480121620

Live tracking and technical data element details for BEESAT-4 (NORAD 41619). BEESAT-4 can be tracked NOW for your location showing map with azimuth and elevation plus other details from your city location.

Track the satellite on the map from your city or location and see movement details for azimuth, elevation, latitude, longitude, range, height, and movement on the map or in text.







IsCatalogInMostPopularTable: catalog: 41619, numindb: 139
Update: records affected: 1



GetName: 41619 BEESAT-4

Hit Count: updated at: Mon, 19 Nov 2018 10:58:37 GMT